Location: Tierra del Sol
(32.6128°N, 116.3319°W)
Time: 04:33:41
(UTC-07:00)

Envisat - Pass Details

Date: 10 October 2017
Orbit: 764 x 766 km, 98.2° (Epoch: 24 October)

Event Time Altitude Azimuth Distance (km) Brightness Sun altitude
Exits shadow 19:47:54 19° 37° (NE) 1,780 4.6 -19.7°
Drops below altitude 10° 19:49:54 10° 18° (NNE) 2,305 5.3 -20.2°
Sets 19:52:36 0° 4° (N) 3,235 6.3 -20.7°
